• In United Kingdom
  • List of Countries
  • For 7 days
  • Water Temperature
  • Satellite Maps
  • Weather Map
  • Weather Widgets
  • user-avatar
    Login

    Hourly Weather Madinat 'Isa

    Today, 20 April, Friday

    Time Temperature Precipitation Wind Pressure Humidity
    00:00 +28°C° 0 mm 4 mps 757 mmHg 29%
    01:00 +28°C° 0 mm 4 mps 757 mmHg 29%
    02:00 +28°C° 0 mm 4 mps 757 mmHg 28%
    03:00 +27°C° 0 mm 3 mps 756 mmHg 33%
    04:00 +27°C° 0 mm 3 mps 756 mmHg 31%
    05:00 +27°C° 0 mm 4 mps 757 mmHg 30%
    06:00 +27°C° 0 mm 4 mps 757 mmHg 28%
    07:00 +29°C° 0 mm 4 mps 757 mmHg 25%
    08:00 +30°C° 0 mm 3 mps 757 mmHg 21%
    09:00 +33°C° 0 mm 3 mps 757 mmHg 17%
    10:00 +34°C° 0 mm 3 mps 757 mmHg 16%
    11:00 +35°C° 0 mm 2 mps 757 mmHg 15%
    12:00 +34°C° 0 mm 1 mps 757 mmHg 15%
    13:00 +36°C° 0 mm 2 mps 757 mmHg 14%
    14:00 +36°C° 0 mm 2 mps 756 mmHg 14%
    15:00 +36°C° 0 mm 2 mps 756 mmHg 14%
    16:00 +36°C° 0 mm 3 mps 756 mmHg 15%
    17:00 +35°C° 0 mm 3 mps 755 mmHg 16%
    18:00 +34°C° 0 mm 3 mps 755 mmHg 18%
    19:00 +33°C° 0 mm 4 mps 755 mmHg 20%
    20:00 +33°C° 0 mm 5 mps 755 mmHg 22%
    21:00 +32°C° 0 mm 5 mps 755 mmHg 24%
    22:00 +30°C° 0 mm 5 mps 755 mmHg 27%
    23:00 +30°C° 0 mm 5 mps 755 mmHg 30%

    Tomorrow, 21 April, Saturday

    Time Temperature Precipitation Wind Pressure Humidity
    00:00 +30°C° 0 mm 5 mps 755 mmHg 32%
    01:00 +29°C° 0 mm 5 mps 755 mmHg 35%
    02:00 +29°C° 0 mm 5 mps 755 mmHg 38%
    03:00 +28°C° 0 mm 5 mps 754 mmHg 41%
    04:00 +28°C° 0 mm 5 mps 755 mmHg 41%
    05:00 +28°C° 0 mm 5 mps 755 mmHg 42%
    06:00 +28°C° 0 mm 5 mps 755 mmHg 42%
    07:00 +29°C° 0 mm 5 mps 756 mmHg 37%
    08:00 +32°C° 0 mm 5 mps 756 mmHg 31%
    09:00 +33°C° 0 mm 6 mps 756 mmHg 26%
    10:00 +35°C° 0 mm 6 mps 756 mmHg 22%
    11:00 +36°C° 0 mm 6 mps 756 mmHg 19%
    12:00 +38°C° 0 mm 6 mps 755 mmHg 15%
    13:00 +39°C° 0 mm 6 mps 755 mmHg 15%
    14:00 +40°C° 0 mm 6 mps 754 mmHg 14%
    15:00 +41°C° 0 mm 6 mps 753 mmHg 13%
    16:00 +40°C° 0 mm 7 mps 753 mmHg 15%
    17:00 +39°C° 0 mm 8 mps 753 mmHg 17%
    18:00 +38°C° 0 mm 8 mps 752 mmHg 19%
    19:00 +37°C° 0 mm 9 mps 753 mmHg 24%
    20:00 +34°C° 0 mm 9 mps 753 mmHg 29%
    21:00 +33°C° 0 mm 9 mps 753 mmHg 33%
    22:00 +32°C° 0 mm 8 mps 754 mmHg 36%
    23:00 +32°C° 0 mm 7 mps 754 mmHg 40%

    Day after tomorrow, 22 April, Sunday

    Time Temperature Precipitation Wind Pressure Humidity
    00:00 +30°C° 0 mm 7 mps 754 mmHg 43%
    01:00 +30°C° 0 mm 6 mps 754 mmHg 45%
    02:00 +29°C° 0 mm 6 mps 753 mmHg 46%
    03:00 +29°C° 0 mm 5 mps 753 mmHg 48%
    04:00 +29°C° 0 mm 6 mps 753 mmHg 48%
    05:00 +29°C° 0 mm 6 mps 754 mmHg 47%
    06:00 +29°C° 0 mm 6 mps 754 mmHg 47%
    07:00 +32°C° 0 mm 6 mps 754 mmHg 40%
    08:00 +33°C° 0 mm 6 mps 754 mmHg 34%
    09:00 +35°C° 0 mm 6 mps 755 mmHg 28%
    10:00 +38°C° 0 mm 6 mps 755 mmHg 24%
    11:00 +40°C° 0 mm 5 mps 754 mmHg 20%
    12:00 +42°C° 0 mm 5 mps 754 mmHg 15%
    13:00 +42°C° 0 mm 5 mps 754 mmHg 16%
    14:00 +43°C° 0 mm 5 mps 753 mmHg 16%
    15:00 +43°C° 0 mm 5 mps 752 mmHg 16%
    16:00 +42°C° 0 mm 6 mps 752 mmHg 17%
    17:00 +41°C° 0 mm 6 mps 752 mmHg 19%
    18:00 +40°C° 0 mm 7 mps 752 mmHg 20%
    19:00 +39°C° 0 mm 6 mps 753 mmHg 22%
    20:00 +39°C° 0 mm 6 mps 753 mmHg 23%
    21:00 +37°C° 0 mm 5 mps 754 mmHg 25%
    22:00 +36°C° 0 mm 6 mps 754 mmHg 28%
    23:00 +35°C° 0 mm 6 mps 753 mmHg 30%

    23 April, Monday

    Time Temperature Precipitation Wind Pressure Humidity
    00:00 +35°C° 0 mm 6 mps 753 mmHg 32%
    01:00 +34°C° 0 mm 6 mps 753 mmHg 34%
    02:00 +34°C° 0 mm 7 mps 753 mmHg 36%
    03:00 +33°C° 0 mm 7 mps 752 mmHg 38%
    04:00 +33°C° 0 mm 6 mps 753 mmHg 40%
    05:00 +33°C° 0 mm 6 mps 754 mmHg 42%
    06:00 +32°C° 0 mm 5 mps 754 mmHg 44%
    07:00 +33°C° 0 mm 6 mps 755 mmHg 45%
    08:00 +33°C° 0 mm 7 mps 755 mmHg 46%
    09:00 +33°C° 0 mm 8 mps 756 mmHg 47%
    10:00 +35°C° 0 mm 7 mps 755 mmHg 40%
    11:00 +36°C° 0 mm 7 mps 755 mmHg 32%
    12:00 +39°C° 0 mm 7 mps 754 mmHg 25%
    13:00 +40°C° 0 mm 7 mps 754 mmHg 24%
    14:00 +40°C° 0 mm 7 mps 753 mmHg 22%
    15:00 +41°C° 0 mm 7 mps 752 mmHg 21%
    16:00 +40°C° 0 mm 7 mps 752 mmHg 22%
    17:00 +39°C° 0 mm 7 mps 752 mmHg 23%
    18:00 +38°C° 0 mm 7 mps 753 mmHg 25%
    19:00 +36°C° 0 mm 6 mps 753 mmHg 30%
    20:00 +35°C° 0 mm 6 mps 754 mmHg 35%
    21:00 +34°C° 0 mm 5 mps 755 mmHg 41%
    22:00 +33°C° 0.2 mm 6 mps 755 mmHg 43%
    23:00 +33°C° 0.2 mm 7 mps 755 mmHg 45%

    24 April, Tuesday

    Time Temperature Precipitation Wind Pressure Humidity
    00:00 +32°C° 0.2 mm 7 mps 755 mmHg 47%
    01:00 +32°C° 0 mm 7 mps 755 mmHg 49%
    02:00 +30°C° 0 mm 6 mps 755 mmHg 51%
    03:00 +30°C° 0 mm 5 mps 755 mmHg 53%
    04:00 +30°C° 0 mm 4 mps 755 mmHg 55%
    05:00 +29°C° 0 mm 4 mps 756 mmHg 57%
    06:00 +29°C° 0 mm 3 mps 757 mmHg 59%
    07:00 +29°C° 0.1 mm 4 mps 758 mmHg 61%
    08:00 +29°C° 0.1 mm 5 mps 758 mmHg 63%
    09:00 +29°C° 0.1 mm 6 mps 759 mmHg 65%
    10:00 +29°C° 0 mm 6 mps 759 mmHg 61%
    11:00 +30°C° 0 mm 6 mps 758 mmHg 58%
    12:00 +32°C° 0 mm 6 mps 758 mmHg 55%
    13:00 +32°C° 0 mm 6 mps 758 mmHg 51%
    14:00 +33°C° 0 mm 6 mps 757 mmHg 48%
    15:00 +33°C° 0 mm 5 mps 756 mmHg 45%
    16:00 +32°C° 0 mm 5 mps 756 mmHg 49%
    17:00 +32°C° 0 mm 5 mps 757 mmHg 52%
    18:00 +30°C° 0 mm 5 mps 757 mmHg 56%
    19:00 +30°C° 0 mm 4 mps 757 mmHg 58%
    20:00 +29°C° 0 mm 4 mps 757 mmHg 59%
    21:00 +29°C° 0 mm 4 mps 758 mmHg 60%
    22:00 +29°C° 0 mm 4 mps 757 mmHg 60%
    23:00 +29°C° 0 mm 4 mps 757 mmHg 60%

    25 April, Wednesday

    Time Temperature Precipitation Wind Pressure Humidity
    00:00 +28°C° 0 mm 4 mps 756 mmHg 60%
    01:00 +28°C° 0 mm 4 mps 756 mmHg 58%
    02:00 +28°C° 0 mm 4 mps 756 mmHg 56%
    03:00 +28°C° 0 mm 5 mps 756 mmHg 54%
    04:00 +28°C° 0 mm 5 mps 757 mmHg 51%
    05:00 +28°C° 0 mm 5 mps 757 mmHg 49%
    06:00 +28°C° 0 mm 5 mps 758 mmHg 46%
    07:00 +30°C° 0 mm 5 mps 758 mmHg 41%
    08:00 +32°C° 0 mm 4 mps 758 mmHg 35%
    09:00 +33°C° 0 mm 4 mps 759 mmHg 30%
    10:00 +33°C° 0 mm 4 mps 758 mmHg 29%
    11:00 +33°C° 0 mm 4 mps 758 mmHg 28%
    12:00 +34°C° 0 mm 4 mps 758 mmHg 27%
    13:00 +34°C° 0 mm 3 mps 757 mmHg 28%
    14:00 +34°C° 0 mm 3 mps 757 mmHg 29%
    15:00 +34°C° 0 mm 2 mps 756 mmHg 30%
    16:00 +34°C° 0 mm 2 mps 756 mmHg 30%
    17:00 +34°C° 0 mm 3 mps 756 mmHg 29%
    18:00 +34°C° 0 mm 3 mps 756 mmHg 29%
    19:00 +34°C° 0 mm 3 mps 756 mmHg 30%
    20:00 +32°C° 0 mm 2 mps 756 mmHg 31%
    21:00 +32°C° 0 mm 2 mps 756 mmHg 32%
    22:00 +31°C° 0 mm 1 mps 756 mmHg 33%
    23:00 +31°C° 0 mm 1 mps 756 mmHg 34%
    Show more